Norwegian Star — C6FR3 — position and weather

sailwx.info

Track history (hours):
 
Tides and Currents Weather Stations Pressure Air Temp Water Temp Dewpoint Dewpoint Depression Visibility Wind Speed Wind Dir Waves Ship Positions

Norwegian Star

Operator: Norwegian Cruise Line

Last reported at 2018-May-24 00:28 UTC. Time now 2018-May-24 00:35 UTC.
Position N 41°22' E 002°11'.

Type: Passenger vessel. MMSI: 311082000.

Date/timePositionNaut miles runAvg speedWind from/ knotsBaromVisibWave heightAir tempDewpointWater temp
2018-May-24 00:28N 41°22' E 002°11'0 0.0
2018-May-23 23:58N 41°22' E 002°11'0 0.0
2018-May-23 23:28N 41°22' E 002°11'0 0.0
2018-May-23 22:58N 41°22' E 002°11'0 0.0
2018-May-23 22:28N 41°22' E 002°11'0 0.0
2018-May-23 21:55N 41°22' E 002°11'0 0.0
2018-May-23 21:25N 41°22' E 002°11'0 0.0
2018-May-23 20:55N 41°22' E 002°11'0 0.0
2018-May-23 20:25N 41°22' E 002°11'0 0.0
2018-May-23 19:58N 41°22' E 002°11'0 0.0
2018-May-23 19:25N 41°22' E 002°11'0 0.0
2018-May-23 18:58N 41°22' E 002°11'0 0.0
2018-May-23 18:28N 41°22' E 002°11'0 0.0
2018-May-23 17:55N 41°22' E 002°11'0 0.0
2018-May-23 17:30N 41°22' E 002°11'1 2.1
2018-May-23 17:00N 41°21' E 002°10'4 7.5
2018-May-23 16:30N 41°17' E 002°11'4 8.1
2018-May-23 16:00N 41°15' E 002°15'2 4.1
2018-May-23 15:30N 41°15' E 002°18'510.2
2018-May-23 15:01N 41°18' E 002°23'611.2
2018-May-23 14:30N 41°23' E 002°27'712.8
2018-May-23 14:00N 41°19' E 002°20'714.1
2018-May-23 13:30N 41°22' E 002°28'5 9.4
2018-May-23 12:59N 41°23' E 002°22'4 8.3
2018-May-23 12:30N 41°19' E 002°19'3 5.2
2018-May-23 12:00N 41°18' E 002°21'4 7.6
2018-May-23 11:30N 41°20' E 002°25'5 9.4
2018-May-23 11:00N 41°24' E 002°29'5 9.7
2018-May-23 10:28N 41°23' E 002°22'4 9.1
2018-May-23 10:00N 41°19' E 002°23'510.9
2018-May-23 09:30N 41°17' E 002°30'611.8
2018-May-23 09:00N 41°20' E 002°38'611.7
2018-May-23 08:30N 41°22' E 002°44'710.8
2018-May-23 07:53N 41°25' E 002°52'411.3
2018-May-23 07:30N 41°27' E 002°58'611.1
2018-May-23 07:00N 41°30' E 003°04'610.8
2018-May-23 06:29N 41°32' E 003°11'610.7
2018-May-23 05:57N 41°35' E 003°18'611.2
2018-May-23 05:27N 41°37' E 003°25'  
Track history (hours):
 
Tides and Currents Weather Stations Pressure Air Temp Water Temp Dewpoint Dewpoint Depression Visibility Wind Speed Wind Dir Waves Ship Positions

Norwegian Star

Operator: Norwegian Cruise Line

Last reported at 2018-May-24 00:28 UTC. Time now 2018-May-24 00:35 UTC.
Position N 41°22' E 002°11'.

Type: Passenger vessel. MMSI: 311082000.

Date/timePositionNaut miles runAvg speedWind from/ knotsBaromVisibWave heightAir tempDewpointWater temp
2018-May-24 00:28N 41°22' E 002°11'0 0.0
2018-May-23 23:58N 41°22' E 002°11'0 0.0
2018-May-23 23:28N 41°22' E 002°11'0 0.0
2018-May-23 22:58N 41°22' E 002°11'0 0.0
2018-May-23 22:28N 41°22' E 002°11'0 0.0
2018-May-23 21:55N 41°22' E 002°11'0 0.0
2018-May-23 21:25N 41°22' E 002°11'0 0.0
2018-May-23 20:55N 41°22' E 002°11'0 0.0
2018-May-23 20:25N 41°22' E 002°11'0 0.0
2018-May-23 19:58N 41°22' E 002°11'0 0.0
2018-May-23 19:25N 41°22' E 002°11'0 0.0
2018-May-23 18:58N 41°22' E 002°11'0 0.0
2018-May-23 18:28N 41°22' E 002°11'0 0.0
2018-May-23 17:55N 41°22' E 002°11'0 0.0
2018-May-23 17:30N 41°22' E 002°11'1 2.1
2018-May-23 17:00N 41°21' E 002°10'4 7.5
2018-May-23 16:30N 41°17' E 002°11'4 8.1
2018-May-23 16:00N 41°15' E 002°15'2 4.1
2018-May-23 15:30N 41°15' E 002°18'510.2
2018-May-23 15:01N 41°18' E 002°23'611.2
2018-May-23 14:30N 41°23' E 002°27'712.8
2018-May-23 14:00N 41°19' E 002°20'714.1
2018-May-23 13:30N 41°22' E 002°28'5 9.4
2018-May-23 12:59N 41°23' E 002°22'4 8.3
2018-May-23 12:30N 41°19' E 002°19'3 5.2
2018-May-23 12:00N 41°18' E 002°21'4 7.6
2018-May-23 11:30N 41°20' E 002°25'5 9.4
2018-May-23 11:00N 41°24' E 002°29'5 9.7
2018-May-23 10:28N 41°23' E 002°22'4 9.1
2018-May-23 10:00N 41°19' E 002°23'510.9
2018-May-23 09:30N 41°17' E 002°30'611.8
2018-May-23 09:00N 41°20' E 002°38'611.7
2018-May-23 08:30N 41°22' E 002°44'710.8
2018-May-23 07:53N 41°25' E 002°52'411.3
2018-May-23 07:30N 41°27' E 002°58'611.1
2018-May-23 07:00N 41°30' E 003°04'610.8
2018-May-23 06:29N 41°32' E 003°11'610.7
2018-May-23 05:57N 41°35' E 003°18'611.2
2018-May-23 05:27N 41°37' E 003°25'  

Dump ship's entire track history